Вернуться в каталог

CZ-6A DEB

АктивенPO
NORAD 60791·DEBRIS·🇨🇳 China

Запущен Aug 6, 2024 с Taiyuan Satellite Launch Center

Loading…

Ближайшие Пролёты (ближайшие 24 часа)

TLE

СвежийSource: Space-Track

Эпоха: Sep 14, 2026, 09:48 UTC

1 60791U 24140FS  26257.40835144  .00000258  00000-0  12745-3 0  9992
2 60791  88.8362 251.1992 0075204 299.4137  59.9557 14.13213363107771

Отслеживайте CZ-6A DEB в реальном времени с AllMySat

Download on the App Store